Regional Weather Roundup
Issued by NWS

Home | Current Version | Previous Version | Text Only | Print | Product List | Glossary Off
Versions: 1 2 3 4 5 6 7 8 9 10 11 12 13 14 15 16 17 18 19 20 21 22 23 24 25 26 27 28 29 30 31 32 33 34 35 36 37 38 39 40 41 42 43 44 45 46 47 48 49 50

000
ASUS43 KLMK 200910
RWRKY
KENTUCKY REGIONAL WEATHER ROUNDUP
NATIONAL WEATHER SERVICE LOUISVILLE KY
400 AM EST MON FEB 20 2017

NOTE "FAIR" INDICATES FEW OR NO CLOUDS BELOW 12,000 FEET
WITH NO SIGNIFICANT WEATHER AND/OR OBSTRUCTIONS TO VISIBILITY.

KYZ001>023-026-027-061>063-070>075-201000-
WESTERN AND SOUTH CENTRAL KENTUCKY

CITY           SKY/WX    TMP DP  RH WIND       PRES   REMARKS
PADUCAH        FOG       46  43  89 CALM      30.09R VSB 1/4
HENDERSON      CLOUDY    43  39  87 E3        30.12S VSB 1/4
OWENSBORO      CLEAR     41  41 100 CALM      30.14S FOG
HOPKINSVILLE   PTCLDY    49  49 100 E6        30.11F
BOWLING GREEN  FOG       42  41  96 CALM      30.15S VSB 1/4
GLASGOW        FOG      N/A N/A N/A CALM      30.16S VSB 1/4
$$

KYZ024-025-028>034-038-045-046-053-201000-
NORTH CENTRAL KENTUCKY

CITY           SKY/WX    TMP DP  RH WIND       PRES   REMARKS
LOUISVILLE/SDF FOG       41  39  93 CALM      30.16S VSB 1/16
LOUISVILLE/LOU FOG       39  38  96 CALM      30.16F VSB 1/4
FORT KNOX      FOG       37  37 100 CALM      30.14F VSB 1/2
$$

KYZ035>037-039>044-047>052-055>060-089>105-201000-
NORTHEAST KENTUCKY

CITY           SKY/WX    TMP DP  RH WIND       PRES   REMARKS
LEXINGTON      CLEAR     40  38  93 SE6       30.16S FOG
COVINGTON      FOG       37  37 100 CALM      30.17R VSB<1/4
FRANKFORT      FOG       36  33  89 CALM      30.16S VSB 1/4
$$

KYZ054-064>069-076>088-106>120-201000-
SOUTHEAST KENTUCKY

CITY           SKY/WX    TMP DP  RH WIND       PRES   REMARKS
JACKSON        CLEAR     48  43  82 SE3       30.17S
LONDON         CLOUDY    38  35  89 CALM      30.16F
SOMERSET       CLEAR     37  37 100 CALM      30.18S
MIDDLESBORO    FOG       37  37 100 CALM      30.20S VSB 1/4
MONTICELLO     FOG       36  34  93 NE10      30.18S VSB 1   WCI  28
$$





USA.gov is the U.S. government's official web portal to all federal, state and local government web resources and services.